Lapse_Rate
7.2 6.5 6.5 6.5 6.5 6.5 6.5 6.5 6.5 6.5 6.5 6.5 6.5 6.5 6.5 7.1 7.2 7.2 7.5 7.8 7.9 8.2 8.7 8.9 9.0 9.2 9.1 9.3 9.4 9.4 9.3 8.5 9.6 8.3 7.0 6.4 5.6 5.8 6.0 5.6 5.4 5.2 4.6 3.7
6.5 6.5 6.5 6.5 6.5 6.5 6.5 6.5 6.5 6.5 6.5 6.5 6.5 6.5 6.5 6.5 6.8 7.2 7.4 7.6 7.8 8.1 8.5 8.7 8.9 9.0 9.1 9.1 9.3 9.4 9.4 9.3 9.6 6.3 5.7 6.3 6.1 6.5 5.9 5.0 4.8 4.9 4.5 3.9
6.5 6.5 6.7 6.5 6.5 6.5 6.5 6.5 6.5 6.5 6.5 6.5 6.5 6.5 6.5 6.5 6.9 7.3 7.6 7.8 8.0 8.0 8.2 8.5 8.8 8.9 9.0 9.1 9.2 9.1 9.2 8.7 8.5 5.5 6.0 6.4 8.3 7.8 5.6 4.6 4.5 4.5 4.4 4.0
6.5 6.7 6.5 6.5 6.5 6.5 6.5 6.5 6.5 6.5 6.5 6.5 6.5 6.5 6.5 6.5 6.5 6.5 7.0 7.5 7.8 8.0 8.3 8.4 8.6 8.7 9.0 9.1 9.3 9.5 9.5 9.5 9.4 7.9 6.6 4.8 5.4 3.7 3.8 4.1 3.9 4.1 4.1 4.4
6.5 6.5 6.5 6.5 6.5 6.5 6.5 6.5 6.5 6.5 6.5 6.5 6.5 6.5 6.5 6.5 6.5 6.5 6.9 7.5 7.9 8.2 8.4 8.5 8.7 8.8 9.1 9.2 9.2 9.4 9.5 9.5 9.5 9.4 6.4 3.9 4.9 5.4 6.2 5.6 4.6 4.6 4.5 5.0
6.5 7.2 6.6 6.5 6.5 6.5 6.5 6.5 6.5 6.5 6.5 6.5 6.5 6.5 6.5 6.5 6.5 6.5 7.0 7.5 7.9 8.2 8.5 8.7 8.8 8.9 9.0 9.1 8.8 9.2 9.3 9.3 9.5 9.2 8.6 5.1 4.3 6.7 8.9 7.1 5.2 4.6 4.8 5.0
6.5 6.5 6.6 6.9 6.5 6.5 6.5 6.5 6.5 6.5 6.5 6.5 6.5 6.5 6.5 6.5 6.5 6.5 6.7 7.6 8.1 8.3 8.4 8.5 8.6 8.7 8.8 8.9 8.8 8.9 9.0 9.0 9.4 9.3 9.3 8.1 6.4 7.8 8.5 6.5 5.3 4.5 5.2 4.8
6.5 6.5 6.5 6.6 6.5 6.5 6.5 6.5 6.5 6.5 6.5 6.5 6.5 6.5 6.5 6.5 6.9 7.4 7.6 7.8 8.0 8.3 8.5 8.5 8.6 8.7 8.8 8.9 9.0 8.9 9.0 9.0 9.3 9.4 9.3 9.4 9.4 9.4 9.1 7.6 5.7 5.3 5.0 4.6
6.5 6.5 6.5 6.4 6.7 6.5 6.5 6.5 6.5 6.5 6.5 6.5 6.5 6.5 6.5 6.5 6.5 7.1 7.3 7.6 7.7 8.1 8.4 8.5 8.7 8.8 8.9 9.0 9.1 9.0 8.8 9.2 9.3 9.4 9.5 9.5 9.8 9.7 9.1 8.7 7.1 5.9 5.2 5.3
6.5 6.5 6.5 6.5 6.9 6.7 6.5 6.5 6.5 6.5 6.5 6.5 6.5 6.5 6.5 6.5 6.5 6.5 6.7 7.6 8.1 8.1 8.4 8.5 8.7 8.8 9.0 9.1 9.2 9.3 9.2 9.1 9.4 9.4 9.6 9.6 9.6 9.6 9.5 9.6 8.3 5.3 5.5 5.5
6.5 6.5 6.5 6.5 6.5 6.5 6.5 6.5 6.5 6.5 6.5 6.5 6.5 6.5 6.5 6.5 6.5 6.5 6.9 7.5 7.8 8.1 8.4 8.6 8.8 9.0 9.1 9.2 9.2 9.3 9.3 9.1 9.3 9.4 9.5 9.5 9.5 9.7 9.7 9.6 9.3 6.1 5.6 5.4
6.6 6.5 6.5 6.5 6.5 6.5 6.5 6.5 6.5 6.5 6.5 6.5 6.5 6.5 6.5 6.5 6.8 7.1 7.3 7.6 8.1 8.2 8.5 8.6 8.8 9.0 9.1 9.1 9.1 9.2 9.3 9.2 9.3 9.4 9.5 9.4 9.5 9.5 9.6 9.6 9.6 7.9 5.7 5.6
6.6 6.5 6.5 6.5 6.5 6.5 6.5 6.5 6.5 6.5 6.5 6.5 6.5 6.5 6.5 7.0 6.9 7.4 7.3 7.8 8.0 8.2 8.4 8.4 8.5 8.7 8.9 9.1 9.2 9.2 9.3 9.3 9.3 9.4 9.4 9.4 9.4 9.4 9.4 9.5 9.6 9.2 6.9 6.1
7.1 6.5 6.5 6.5 6.5 6.5 6.5 6.5 6.5 6.5 6.5 6.5 6.5 6.5 6.5 6.5 6.5 7.0 7.4 7.8 8.0 8.2 8.3 8.4 8.4 8.5 9.0 8.9 9.0 9.0 9.2 9.4 9.3 9.3 9.3 9.2 9.3 9.4 9.4 9.6 9.6 9.5 7.8 6.5
6.6 6.5 6.5 6.5 6.5 6.5 6.5 6.5 6.5 6.5 6.5 6.5 6.5 6.5 6.5 6.5 6.5 7.2 7.6 7.8 7.9 8.0 8.1 8.3 8.4 8.7 8.6 8.9 8.9 9.0 9.1 9.2 9.4 9.2 9.2 9.1 9.4 9.5 9.4 9.5 9.5 9.5 8.2 7.3
6.7 6.5 6.5 6.5 6.5 6.5 6.5 6.5 6.5 6.5 6.5 6.5 6.5 6.5 6.5 7.2 7.6 7.4 7.6 7.7 7.7 7.9 8.1 8.3 8.6 8.6 8.7 8.9 8.7 8.8 9.0 8.9 9.3 9.1 9.1 9.2 9.3 9.4 9.3 9.4 9.4 9.3 8.3 8.4
6.5 6.5 6.5 6.5 6.5 6.5 6.5 6.5 6.5 6.5 6.5 6.5 6.5 6.5 6.6 6.5 6.9 7.3 7.5 7.7 7.7 8.0 8.1 8.3 8.4 8.6 8.8 8.9 9.1 9.0 9.1 9.3 9.1 9.0 9.0 9.2 9.2 9.2 9.3 9.3 9.4 9.4 7.9 8.4
6.5 6.5 6.5 6.5 6.5 6.5 6.5 6.5 6.5 6.5 6.5 6.5 6.5 6.5 6.7 6.8 7.6 7.9 8.2 7.9 8.0 8.2 8.3 8.5 8.7 8.7 8.8 9.1 9.1 9.2 9.1 8.9 9.1 8.9 9.0 9.0 9.2 9.1 9.3 9.3 9.3 9.3 8.8 8.2
6.9 6.5 6.5 6.5 6.5 6.5 6.5 6.5 6.5 6.5 6.5 6.5 6.5 6.5 7.1 7.5 7.7 7.5 8.1 8.4 8.4 8.5 8.7 8.8 9.0 8.9 9.0 9.0 9.1 9.0 8.9 9.0 8.9 8.9 9.1 8.8 9.2 8.9 9.1 9.2 9.3 9.4 9.3 8.9
6.5 6.5 6.5 6.5 6.5 6.5 6.5 6.5 7.2 6.8 6.5 6.7 7.0 6.8 6.9 7.2 6.5 6.5 8.2 8.5 8.6 8.8 8.8 8.8 8.9 9.1 9.1 9.0 9.3 8.9 8.8 8.8 8.8 8.9 8.9 8.7 9.0 9.3 9.5 9.3 9.5 9.1 9.3 8.4
6.5 6.5 6.5 6.5 6.5 6.5 6.5 6.8 7.2 6.5 6.5 7.2 7.4 7.3 7.1 6.5 7.1 8.1 8.5 8.5 8.7 8.8 8.8 8.9 8.9 8.9 9.0 9.2 9.2 8.6 8.8 8.8 9.2 9.2 8.9 9.0 9.1 9.3 9.6 9.3 9.5 9.3 8.8 8.7
6.5 6.5 6.5 6.5 6.5 6.5 7.0 6.8 6.5 6.8 7.7 7.5 7.6 7.7 7.5 7.8 7.9 8.1 8.3 8.4 8.5 8.5 8.7 8.8 8.8 8.8 9.1 9.3 8.9 7.9 8.6 9.5 9.4 8.8 8.3 8.9 9.1 9.2 9.3 9.1 9.7 9.4 8.5 7.6
6.5 6.5 6.5 6.5 6.5 7.0 7.6 7.4 8.0 7.9 7.5 7.6 7.7 7.9 8.0 7.8 7.9 8.1 8.5 8.4 8.5 8.7 8.8 8.9 8.9 8.8 9.0 9.1 7.3 6.6 8.6 9.0 8.8 8.1 8.8 8.9 9.0 9.3 9.3 9.3 9.3 9.4 8.2 6.9
6.5 7.1 6.5 6.5 6.6 6.9 7.4 7.9 8.0 8.0 7.8 8.0 8.1 8.2 8.1 7.9 8.2 8.2 8.5 8.5 8.5 8.7 8.7 8.9 8.8 8.7 8.7 8.9 6.8 7.2 8.9 9.1 9.0 8.8 8.7 8.5 9.0 9.3 9.3 9.9 9.8 9.4 8.5 7.9
6.8 6.9 6.5 6.5 6.8 7.2 7.5 7.7 7.8 8.1 8.2 8.2 8.4 8.3 8.2 8.2 8.2 8.3 8.7 8.4 8.6 8.7 8.8 8.9 8.7 8.9 8.7 8.8 7.1 7.8 9.1 8.9 9.0 9.0 8.5 8.7 8.9 9.1 9.2 9.5 9.7 9.3 8.2 6.7
7.2 6.5 6.5 6.5 7.1 6.9 6.9 7.9 8.3 8.1 8.1 8.2 8.2 8.3 8.5 8.4 8.3 8.5 9.0 8.6 8.6 8.7 9.0 9.1 8.8 8.8 8.8 8.9 7.3 7.2 8.7 9.2 8.9 8.7 8.2 8.1 9.1 9.0 8.7 9.1 9.2 7.2 4.9 4.6
Wind_Speed
1 5 8 10 8 11 12 13 18 20 21 21 21 23 24 25 23 23 23 23 23 24 23 19 15 16 19 21 23 24 24 25 18 15 14 13 13 12 11 13 17 18 16 16
5 8 7 2 4 8 11 15 18 17 13 14 19 29 28 27 26 23 20 19 21 19 17 17 15 14 18 21 22 23 25 24 21 15 14 14 13 13 11 12 16 19 18 18
8 3 1 4 6 8 11 13 16 19 20 16 18 23 10 9 8 10 11 14 17 16 16 16 17 14 12 17 21 23 26 26 25 24 14 12 12 9 11 12 12 15 20 19
7 2 4 5 10 9 13 5 11 14 11 10 12 16 16 6 2 3 8 13 17 19 18 16 18 18 16 14 16 20 23 25 24 25 19 23 16 15 13 14 13 13 22 20
3 7 8 11 8 3 11 7 11 14 16 16 12 8 3 11 9 11 17 16 16 16 18 21 19 20 18 17 16 16 20 23 24 25 23 19 21 15 13 13 17 17 15 20
14 8 6 6 8 7 12 10 14 9 9 7 8 14 12 7 3 15 14 17 18 19 19 20 22 23 19 18 17 15 19 21 23 23 25 25 25 22 15 16 14 13 13 13
11 4 0 5 3 1 10 11 7 5 5 9 3 9 18 20 12 15 16 20 26 26 23 22 22 22 23 23 21 18 16 20 22 25 26 26 24 24 23 19 15 17 13 12
6 1 4 5 10 7 10 5 6 9 11 18 18 14 10 12 8 14 17 18 23 27 23 24 24 24 24 23 22 22 19 18 19 23 25 24 24 15 15 19 14 14 13 14
7 3 10 15 7 4 4 6 10 14 21 18 15 21 23 17 13 28 28 28 30 27 25 27 25 23 22 22 23 21 19 16 16 20 20 22 22 23 19 21 19 14 17 13
3 10 5 5 10 7 8 11 9 7 8 13 14 23 21 20 28 29 32 34 32 30 30 25 21 21 21 20 20 21 19 16 15 16 18 17 21 23 21 18 21 20 18 18
8 5 5 13 6 15 14 7 5 6 9 12 18 14 19 29 32 32 30 28 28 29 27 24 22 20 19 20 20 20 18 16 14 14 15 18 18 21 21 19 19 19 19 19
5 6 12 20 16 5 3 8 9 9 19 18 19 26 26 26 28 27 27 23 25 26 24 23 21 20 19 19 21 20 17 16 14 13 13 16 18 19 20 20 20 19 19 18
7 2 8 3 6 9 4 17 16 18 14 22 19 18 22 28 29 25 26 26 22 24 27 24 21 17 18 19 19 19 19 16 15 14 13 15 16 18 20 21 20 20 19 19
8 9 13 12 17 17 23 21 20 19 14 22 19 27 25 27 26 25 24 23 23 24 25 24 20 18 19 17 16 17 20 18 16 13 14 15 16 17 18 19 20 20 20 20
4 8 13 17 22 23 25 22 24 23 23 21 25 26 24 24 23 23 21 25 26 24 24 21 24 23 21 18 16 15 18 20 17 13 13 14 15 16 17 19 20 21 21 19
7 10 13 19 23 24 23 22 25 24 21 25 24 25 22 21 20 22 23 22 25 24 22 23 27 27 24 23 16 14 16 16 18 16 14 14 14 15 17 19 21 20 20 20
13 7 8 16 16 17 14 16 13 16 21 21 19 22 21 17 22 26 22 23 22 21 25 27 25 24 22 23 22 17 18 18 19 17 16 14 14 16 17 19 20 19 20 21
11 12 7 9 13 13 8 19 23 19 22 18 19 18 14 19 23 28 23 19 20 24 26 25 22 22 23 21 21 19 17 18 16 17 17 12 16 16 17 19 20 20 19 19
14 10 5 6 13 19 18 14 13 15 25 15 18 12 22 23 24 30 17 21 24 25 24 23 22 22 23 22 20 19 20 19 19 19 18 13 16 15 18 19 20 19 18 17
7 12 10 12 16 16 18 21 13 5 16 5 16 23 24 23 14 20 26 26 25 23 22 23 24 23 23 22 21 18 19 20 19 16 18 16 15 17 20 19 18 17 17 17
7 7 13 13 16 13 15 8 4 11 14 24 22 22 20 19 16 26 26 27 24 23 26 25 23 20 22 23 21 18 20 23 21 21 18 16 16 18 20 17 17 17 18 17
8 7 11 11 9 11 5 6 13 18 25 22 23 21 21 23 24 26 24 24 24 25 25 26 22 20 22 23 18 16 20 23 20 18 17 18 16 14 13 18 16 19 17 18
6 9 10 9 11 21 25 24 21 20 19 19 22 21 20 23 25 26 24 24 23 24 22 22 21 22 21 21 11 16 21 20 21 19 18 12 12 14 13 16 18 16 16 14
15 13 12 15 18 24 21 25 20 13 16 17 20 22 23 24 26 27 23 22 21 21 21 21 22 22 22 18 11 12 21 18 17 17 10 7 15 14 16 13 14 13 14 13
16 18 18 22 24 21 16 13 18 19 19 20 21 22 23 24 26 24 22 23 21 21 20 20 20 19 22 18 11 12 19 16 13 12 7 9 9 13 14 13 13 12 13 14
13 12 10 14 19 13 12 14 18 20 22 23 24 27 25 24 24 25 21 20 20 21 20 19 21 20 21 20 9 9 16 15 10 6 6 5 10 12 10 11 12 11 19 18
Wind_Direction
13 263 263 307 263 290 288 282 281 282 290 294 277 280 281 284 278 266 263 266 268 266 268 263 257 238 232 227 221 216 212 209 202 197 198 200 202 199 200 201 198 193 189 187
239 266 342 278 257 255 267 277 283 288 290 295 293 289 288 275 272 273 273 274 274 285 291 284 270 247 239 233 227 224 218 210 205 198 199 201 200 202 198 196 197 195 192 188
269 344 74 292 277 261 265 269 285 293 310 283 302 288 291 296 279 284 272 277 291 297 301 321 332 317 268 255 243 228 218 212 209 202 195 195 196 193 196 198 197 197 194 190
276 20 278 279 278 276 289 321 288 296 308 299 15 298 316 327 317 306 328 358 20 13 14 10 0 352 330 289 264 254 237 226 216 205 196 192 191 191 200 194 194 190 193 191
320 298 298 290 298 254 291 342 307 292 282 294 274 249 211 310 355 74 50 42 33 22 14 7 360 354 350 342 307 263 246 234 221 210 205 197 200 205 194 193 189 189 190 194
272 294 286 294 314 287 310 300 287 270 267 258 279 220 300 36 91 6 19 21 15 9 3 355 349 345 342 341 338 296 261 244 227 215 211 207 204 202 195 190 185 188 188 192
303 298 152 351 312 16 332 323 298 245 218 267 58 282 255 308 30 40 23 13 4 356 352 345 343 339 338 335 337 327 277 253 239 222 218 217 215 207 199 191 186 181 185 190
341 178 40 14 354 311 305 308 282 288 298 299 299 261 261 326 329 36 354 347 349 343 339 338 336 332 327 329 334 331 314 265 249 234 223 222 218 215 201 196 189 186 185 187
331 250 328 342 348 302 19 284 334 286 276 273 259 270 275 298 360 343 333 333 336 337 337 329 326 329 325 326 330 330 323 294 258 246 232 225 218 213 204 198 193 186 185 185
34 293 286 30 326 199 12 336 301 269 282 275 281 308 297 337 333 331 334 328 330 334 329 325 332 332 325 325 326 329 327 308 280 256 238 230 225 217 211 204 195 187 183 182
331 249 248 329 287 306 310 302 295 313 279 287 296 277 343 319 318 321 325 329 326 325 326 326 327 333 329 327 329 326 331 319 294 267 242 232 225 220 213 208 201 189 180 179
12 301 289 293 298 314 180 137 315 289 292 281 283 277 291 306 309 311 316 331 320 314 321 315 313 322 327 331 330 327 329 329 305 280 249 238 226 216 213 208 202 188 182 180
1 286 311 278 125 171 300 319 303 287 274 269 275 284 303 300 302 303 318 322 316 317 316 317 318 321 323 327 322 326 326 328 326 295 262 242 224 217 214 207 200 191 181 179
287 252 246 266 287 294 292 291 286 279 273 278 278 293 300 301 304 311 320 318 312 310 310 315 316 318 320 318 315 319 326 325 326 306 271 251 231 218 218 209 199 191 181 179
303 273 280 281 288 286 283 289 280 277 277 277 289 291 296 306 308 312 312 313 313 310 311 314 317 317 318 314 319 324 315 320 315 310 284 261 243 225 212 212 200 190 184 181
298 280 292 287 283 276 280 280 282 280 276 273 288 291 297 320 312 308 306 316 311 311 313 314 315 316 317 317 319 310 305 310 311 310 301 271 253 230 215 207 202 191 182 179
284 270 276 277 288 287 275 267 296 290 290 289 290 300 315 314 312 305 311 311 306 316 320 314 314 311 313 315 313 309 315 316 308 305 297 276 253 238 220 205 203 192 182 177
245 251 256 287 291 278 303 306 297 285 279 291 292 304 303 309 309 300 310 307 315 317 312 311 312 311 311 310 309 306 314 307 296 297 300 289 254 235 225 210 199 194 184 178
220 246 264 262 271 285 292 295 313 303 288 300 292 301 310 317 314 296 309 323 316 312 310 308 309 309 310 309 307 308 310 315 313 305 295 272 242 228 223 211 199 188 186 178
239 232 244 275 285 286 287 304 325 292 284 77 338 319 315 317 305 301 317 314 311 313 311 308 307 308 307 309 309 304 304 303 296 288 284 278 257 228 218 204 197 185 177 175
269 250 237 265 275 277 279 304 261 265 306 322 314 307 310 309 302 303 308 308 309 309 307 308 306 306 307 310 304 305 306 302 301 291 280 268 230 220 212 195 192 180 172 167
279 286 275 272 268 278 70 316 285 302 306 304 306 308 310 307 305 306 309 309 310 310 308 307 308 310 309 310 312 307 303 303 303 288 271 254 213 204 196 193 187 178 165 162
263 232 286 265 269 286 296 298 297 298 299 308 306 303 307 304 302 304 306 308 309 309 307 306 309 312 309 313 325 307 301 312 300 292 276 240 192 190 185 186 182 175 163 160
283 265 257 279 267 276 295 305 302 321 298 294 296 298 302 301 303 302 303 306 307 308 308 309 310 311 310 317 308 305 304 310 302 285 263 217 191 184 184 182 182 169 162 155
278 294 274 272 280 292 290 306 312 304 300 293 294 302 300 297 297 300 297 302 303 306 307 307 307 306 304 312 306 315 315 313 302 283 202 212 181 177 181 180 175 166 154 153
261 264 275 278 304 297 291 298 300 301 305 302 303 302 302 299 296 299 296 298 300 303 304 303 302 302 308 306 290 314 325 324 305 265 182 197 170 169 164 163 145 110 124 113